Weather History for Wrangell, AK

Change the Weather History Date:

Monday, September 2, 2013

  Actual Average Record
Temperature  
Mean Temperature 58 °F -  
Max Temperature 66 °F 60 °F 69 °F (1974)
Min Temperature 50 °F 47 °F 40 °F (1964)
Degree Days  
Heating Degree Days 7    
Growing Degree Days 8 (Base 50)    
Moisture  
Dew Point 50 °F    
Average Humidity 79    
Maximum Humidity 88    
Minimum Humidity 64    
Precipitation  
Precipitation 0.00 in - - ()
Sea Level Pressure  
Sea Level Pressure 29.96 in    
Wind  
Wind Speed 2 mph (NW)    
Max Wind Speed 7 mph    
Max Gust Speed -    
Visibility 10 miles    
Events      
Averages and records for this station are not official NWS values.
T = Trace of Precipitation, MM = Missing Value Source: NWS Daily Summary

Daily Weather History Graph

Daily Weather History Graph

Search for Another Location

Airport:

Trip Planner

Search our weather history database for the weather conditions in past years. The results will help you decide how hot, cold, wet, or windy it might be!

Date:

Astronomy

Sep. 02, 2013 Rise Set
Actual Time 5:55 AM AKDT 7:41 PM AKDT
Civil Twilight 5:15 AM AKDT 8:20 PM AKDT
Nautical Twilight 4:25 AM AKDT 9:10 PM AKDT
Astronomical Twilight 3:27 AM AKDT 10:07 PM AKDT
Moon 3:00 AM AKDT (9/2) 6:10 PM AKDT (9/2)
Length of Visible Light 15h 04m
Length of Day
13h 45m
Waning Crescent, 7% of the Moon is Illuminated
Sep 2
Waning Crescent
Sep 5
New
Sep 12
First Quarter
Sep 19
Full
Sep 26
Last Quarter

Hourly Weather History & Observations

Time (AKDT) Temp. Dew Point Humidity Pressure Visibility Wind Dir Wind Speed Gust Speed Precip Events Conditions
12:16 AM 53.6 °F 48.2 °F 82% 29.91 in 10.0 mi Calm Calm - N/A   Clear
12:36 AM 53.6 °F 48.2 °F 82% 29.91 in 10.0 mi NW 3.5 mph - N/A   Clear
12:56 AM 53.6 °F 48.2 °F 82% 29.91 in 10.0 mi WNW 3.5 mph - N/A   Clear
1:16 AM 53.6 °F 48.2 °F 82% 29.91 in 10.0 mi WNW 3.5 mph - N/A   Clear
1:36 AM 53.6 °F 46.4 °F 77% 29.91 in 10.0 mi NW 3.5 mph - N/A   Clear
1:56 AM 51.8 °F 46.4 °F 82% 29.92 in 10.0 mi Calm Calm - N/A   Clear
2:16 AM 51.8 °F 46.4 °F 82% 29.92 in 10.0 mi Calm Calm - N/A   Clear
2:36 AM 51.8 °F 46.4 °F 82% 29.91 in 10.0 mi Calm Calm - N/A   Clear
2:56 AM 51.8 °F 46.4 °F 82% 29.91 in 10.0 mi Calm Calm - N/A   Clear
3:16 AM 51.8 °F 46.4 °F 82% 29.91 in 10.0 mi Calm Calm - N/A   Clear
3:36 AM 51.8 °F 46.4 °F 82% 29.91 in 10.0 mi Calm Calm - N/A   Scattered Clouds
3:56 AM 51.8 °F 46.4 °F 82% 29.91 in 10.0 mi Calm Calm - N/A   Overcast
4:16 AM 51.8 °F 48.2 °F 88% 29.92 in 10.0 mi Calm Calm - N/A   Overcast
4:36 AM 51.8 °F 48.2 °F 88% 29.92 in 10.0 mi Calm Calm - N/A   Overcast
4:56 AM 51.8 °F 48.2 °F 88% 29.92 in 10.0 mi Calm Calm - N/A   Overcast
5:16 AM 51.8 °F 48.2 °F 88% 29.93 in 10.0 mi Calm Calm - N/A   Overcast
5:36 AM 51.8 °F 48.2 °F 88% 29.93 in 10.0 mi Calm Calm - N/A   Overcast
5:56 AM 51.8 °F 48.2 °F 88% 29.93 in 10.0 mi Calm Calm - N/A   Overcast
6:16 AM 51.8 °F 46.4 °F 82% 29.94 in 10.0 mi Calm Calm - N/A   Overcast
6:36 AM 50.0 °F 46.4 °F 87% 29.94 in 10.0 mi Calm Calm - N/A   Overcast
6:56 AM 50.0 °F 46.4 °F 87% 29.95 in 10.0 mi Calm Calm - N/A   Mostly Cloudy
7:16 AM 50.0 °F 46.4 °F 87% 29.95 in 10.0 mi Calm Calm - N/A   Mostly Cloudy
7:36 AM 50.0 °F 46.4 °F 87% 29.95 in 10.0 mi Calm Calm - N/A   Mostly Cloudy
7:56 AM 51.8 °F 46.4 °F 82% 29.96 in 10.0 mi NW 3.5 mph - N/A   Mostly Cloudy
8:16 AM 50.0 °F 46.4 °F 87% 29.96 in 10.0 mi NW 3.5 mph - N/A   Mostly Cloudy
8:36 AM 51.8 °F 48.2 °F 88% 29.96 in 10.0 mi NW 3.5 mph - N/A   Mostly Cloudy
8:56 AM 51.8 °F 46.4 °F 82% 29.96 in 10.0 mi NW 3.5 mph - N/A   Mostly Cloudy
9:16 AM 51.8 °F 48.2 °F 88% 29.96 in 10.0 mi NNW 3.5 mph - N/A   Mostly Cloudy
9:36 AM 53.6 °F 48.2 °F 82% 29.96 in 10.0 mi NNW 4.6 mph - N/A   Mostly Cloudy
9:56 AM 55.4 °F 50.0 °F 82% 29.96 in 10.0 mi NNW 4.6 mph - N/A   Scattered Clouds
10:16 AM 55.4 °F 50.0 °F 82% 29.96 in 10.0 mi NNW 4.6 mph - N/A   Scattered Clouds
10:36 AM 55.4 °F 51.8 °F 88% 29.96 in 10.0 mi NNW 5.8 mph - N/A   Scattered Clouds
10:56 AM 55.4 °F 50.0 °F 82% 29.97 in 10.0 mi NNW 5.8 mph - N/A   Scattered Clouds
11:16 AM 57.2 °F 51.8 °F 82% 29.96 in 10.0 mi WNW 5.8 mph - N/A   Scattered Clouds
11:36 AM 60.8 °F 51.8 °F 72% 29.97 in 10.0 mi WNW 6.9 mph - N/A   Scattered Clouds
11:56 AM 60.8 °F 51.8 °F 72% 29.97 in 10.0 mi WNW 6.9 mph - N/A   Scattered Clouds
12:16 PM 60.8 °F 51.8 °F 72% 29.97 in 10.0 mi West 6.9 mph - N/A   Scattered Clouds
12:36 PM 60.8 °F 51.8 °F 72% 29.97 in 10.0 mi West 4.6 mph - N/A   Scattered Clouds
12:56 PM 62.6 °F 51.8 °F 68% 29.97 in 10.0 mi WNW 4.6 mph - N/A   Scattered Clouds
1:16 PM 62.6 °F 51.8 °F 68% 29.97 in 10.0 mi West 4.6 mph - N/A   Scattered Clouds
1:36 PM 62.6 °F 51.8 °F 68% 29.97 in 10.0 mi West 5.8 mph - N/A   Scattered Clouds
1:56 PM 62.6 °F 51.8 °F 68% 29.98 in 10.0 mi West 4.6 mph - N/A   Partly Cloudy
2:16 PM 62.6 °F 51.8 °F 68% 29.98 in 10.0 mi WNW 5.8 mph - N/A   Partly Cloudy
2:36 PM 64.4 °F 53.6 °F 68% 29.97 in 10.0 mi West 5.8 mph - N/A   Partly Cloudy
2:56 PM 64.4 °F 53.6 °F 68% 29.97 in 10.0 mi WNW 5.8 mph - N/A   Partly Cloudy
3:16 PM 64.4 °F 53.6 °F 68% 29.97 in 10.0 mi WNW 5.8 mph - N/A   Partly Cloudy
3:36 PM 64.4 °F 51.8 °F 64% 29.96 in 10.0 mi NW 3.5 mph - N/A   Partly Cloudy
3:56 PM 66.2 °F 53.6 °F 64% 29.96 in 10.0 mi WNW 3.5 mph - N/A   Partly Cloudy
4:16 PM 66.2 °F 53.6 °F 64% 29.96 in 10.0 mi WNW 5.8 mph - N/A   Partly Cloudy
4:36 PM 66.2 °F 53.6 °F 64% 29.96 in 10.0 mi NNW 4.6 mph - N/A   Partly Cloudy
4:56 PM 64.4 °F 53.6 °F 68% 29.96 in 10.0 mi NW 3.5 mph - N/A   Partly Cloudy
5:16 PM 64.4 °F 55.4 °F 73% 29.96 in 10.0 mi NNW 4.6 mph - N/A   Partly Cloudy
5:36 PM 64.4 °F 53.6 °F 68% 29.96 in 10.0 mi NNW 3.5 mph - N/A   Partly Cloudy
5:56 PM 64.4 °F 53.6 °F 68% 29.96 in 10.0 mi Calm Calm - N/A   Partly Cloudy
6:16 PM 62.6 °F 53.6 °F 72% 29.96 in 10.0 mi NNW 3.5 mph - N/A   Partly Cloudy
6:36 PM 62.6 °F 53.6 °F 72% 29.97 in 10.0 mi NW 3.5 mph - N/A   Partly Cloudy
6:56 PM 62.6 °F 53.6 °F 72% 29.97 in 10.0 mi NNW 3.5 mph - N/A   Partly Cloudy
7:16 PM 60.8 °F 53.6 °F 77% 29.98 in 10.0 mi NW 3.5 mph - N/A   Partly Cloudy
7:36 PM 59.0 °F 53.6 °F 82% 29.98 in 10.0 mi Calm Calm - N/A   Partly Cloudy
7:56 PM 59.0 °F 51.8 °F 77% 29.98 in 10.0 mi Calm Calm - N/A   Partly Cloudy
8:16 PM 57.2 °F 51.8 °F 82% 29.98 in 10.0 mi East 3.5 mph - N/A   Partly Cloudy
8:36 PM 57.2 °F 51.8 °F 82% 29.99 in 10.0 mi NNW 3.5 mph - N/A   Partly Cloudy
8:56 PM 57.2 °F 51.8 °F 82% 29.99 in 10.0 mi Calm Calm - N/A   Partly Cloudy
9:16 PM 55.4 °F 51.8 °F 88% 29.99 in 10.0 mi Calm Calm - N/A   Partly Cloudy
9:36 PM 57.2 °F 51.8 °F 82% 29.99 in 10.0 mi Calm Calm - N/A   Partly Cloudy
9:56 PM 55.4 °F 51.8 °F 88% 29.99 in 10.0 mi WNW 3.5 mph - N/A   Partly Cloudy
10:16 PM 55.4 °F 50.0 °F 82% 30.00 in 10.0 mi WNW 3.5 mph - N/A   Partly Cloudy
10:36 PM 53.6 °F 48.2 °F 82% 30.00 in 10.0 mi Calm Calm - N/A   Partly Cloudy
10:56 PM 53.6 °F 48.2 °F 82% 30.00 in 10.0 mi Calm Calm - N/A   Partly Cloudy
11:16 PM 53.6 °F 50.0 °F 88% 30.01 in 10.0 mi ESE 4.6 mph - N/A   Clear
11:36 PM 53.6 °F 50.0 °F 88% 30.01 in 10.0 mi ESE 3.5 mph - N/A   Clear
11:56 PM 53.6 °F 48.2 °F 82% 30.01 in 10.0 mi SE 4.6 mph - N/A   Clear